QPF
0.02 0.02 0.03 0.07 0.06 0.03 0.03 0.04 0.03 0.03 0.02 0.02 0.02 0.02 0.01 0.01 0.02 0.03 0.03 0.03 0.01 0.01 0.04 0.11 0.15 0.18 0.24 0.27 0.23 0.14 0.14 0.15 0.11 0.07 0.05 0.05 0.06 0.07 0.07 0.07 0.07 0.08 0.09 0.09 0.09 0.09 0.09 0.10 0.09
0.04 0.04 0.06 0.07 0.06 0.03 0.03 0.04 0.03 0.02 0.01 0.01 0.01 0.01 0.01 0.01 0.02 0.03 0.03 0.03 0.02 0.02 0.05 0.09 0.16 0.25 0.27 0.31 0.35 0.23 0.12 0.15 0.16 0.10 0.08 0.07 0.07 0.06 0.06 0.07 0.07 0.06 0.06 0.07 0.09 0.10 0.10 0.09 0.07
0.07 0.06 0.07 0.05 0.03 0.04 0.04 0.05 0.03 0.02 0.02 0.02 0.01 0.01 0.01 0.02 0.03 0.02 0.02 0.02 0.02 0.03 0.05 0.08 0.19 0.18 0.12 0.19 0.32 0.33 0.18 0.18 0.21 0.15 0.12 0.10 0.08 0.07 0.05 0.06 0.05 0.05 0.05 0.06 0.08 0.10 0.11 0.11 0.11
0.04 0.04 0.04 0.03 0.03 0.04 0.03 0.02 0.02 0.04 0.03 0.02 0.01 0.01 0.02 0.03 0.04 0.03 0.02 0.02 0.02 0.03 0.05 0.11 0.21 0.11 0.09 0.12 0.26 0.31 0.16 0.13 0.15 0.10 0.07 0.06 0.06 0.06 0.05 0.05 0.05 0.04 0.04 0.05 0.05 0.07 0.09 0.11 0.13
0.03 0.04 0.03 0.04 0.06 0.05 0.03 0.02 0.03 0.06 0.05 0.02 0.01 0.01 0.02 0.03 0.03 0.03 0.03 0.03 0.02 0.03 0.05 0.11 0.22 0.17 0.13 0.18 0.29 0.24 0.15 0.12 0.13 0.08 0.04 0.04 0.05 0.05 0.05 0.05 0.05 0.06 0.06 0.06 0.06 0.06 0.06 0.09 0.11
0.04 0.03 0.02 0.04 0.09 0.04 0.04 0.03 0.07 0.08 0.03 0.02 0.01 0.01 0.02 0.04 0.02 0.02 0.02 0.03 0.03 0.03 0.05 0.11 0.21 0.23 0.26 0.31 0.27 0.19 0.13 0.12 0.12 0.07 0.05 0.04 0.04 0.04 0.05 0.06 0.06 0.07 0.07 0.07 0.06 0.06 0.07 0.07 0.08
0.02 0.02 0.01 0.02 0.05 0.04 0.03 0.03 0.06 0.05 0.03 0.02 0.01 0.01 0.03 0.03 0.03 0.02 0.02 0.02 0.03 0.04 0.06 0.07 0.11 0.15 0.17 0.19 0.18 0.13 0.13 0.12 0.09 0.07 0.05 0.05 0.06 0.05 0.06 0.06 0.07 0.07 0.07 0.07 0.06 0.06 0.08 0.09 0.09
0.02 0.01 0.00 0.01 0.02 0.03 0.02 0.03 0.03 0.02 0.02 0.01 0.01 0.01 0.02 0.03 0.03 0.03 0.02 0.02 0.03 0.04 0.06 0.04 0.04 0.07 0.08 0.10 0.14 0.14 0.15 0.13 0.08 0.05 0.05 0.06 0.08 0.08 0.07 0.05 0.06 0.07 0.07 0.06 0.05 0.06 0.09 0.11 0.13
0.02 0.02 0.01 0.01 0.01 0.02 0.02 0.02 0.02 0.02 0.02 0.02 0.02 0.01 0.01 0.03 0.02 0.03 0.03 0.02 0.02 0.03 0.05 0.04 0.03 0.05 0.08 0.10 0.12 0.14 0.15 0.12 0.07 0.04 0.04 0.04 0.07 0.08 0.05 0.04 0.04 0.07 0.08 0.06 0.05 0.07 0.08 0.07 0.09
0.02 0.02 0.02 0.02 0.01 0.01 0.01 0.01 0.01 0.01 0.02 0.04 0.03 0.03 0.03 0.03 0.02 0.02 0.02 0.02 0.02 0.02 0.04 0.04 0.02 0.03 0.04 0.06 0.06 0.07 0.06 0.05 0.03 0.02 0.02 0.02 0.07 0.13 0.12 0.09 0.07 0.07 0.08 0.08 0.06 0.07 0.07 0.05 0.06
0.01 0.01 0.02 0.01 0.01 0.01 0.01 0.00 0.01 0.01 0.02 0.02 0.02 0.02 0.03 0.03 0.01 0.02 0.02 0.02 0.01 0.02 0.03 0.04 0.03 0.03 0.03 0.03 0.02 0.02 0.02 0.02 0.01 0.01 0.01 0.01 0.04 0.11 0.16 0.14 0.09 0.07 0.05 0.06 0.06 0.05 0.05 0.05 0.07
0.01 0.01 0.01 0.01 0.01 0.00 0.01 0.00 0.01 0.01 0.01 0.01 0.02 0.02 0.01 0.02 0.02 0.02 0.02 0.02 0.02 0.02 0.02 0.03 0.02 0.02 0.02 0.02 0.02 0.01 0.02 0.01 0.01 0.01 0.01 0.01 0.01 0.05 0.11 0.13 0.08 0.05 0.04 0.06 0.06 0.05 0.06 0.06 0.07
0.00 0.01 0.01 0.01 0.01 0.01 0.01 0.01 0.00 0.00 0.01 0.01 0.01 0.01 0.01 0.02 0.02 0.02 0.04 0.03 0.02 0.02 0.02 0.03 0.02 0.01 0.01 0.02 0.01 0.01 0.01 0.01 0.01 0.01 0.01 0.01 0.01 0.03 0.03 0.04 0.05 0.05 0.04 0.04 0.05 0.06 0.07 0.07 0.07
0.00 0.01 0.01 0.01 0.01 0.01 0.00 0.01 0.00 0.00 0.00 0.00 0.01 0.01 0.01 0.02 0.01 0.01 0.02 0.03 0.04 0.03 0.03 0.03 0.02 0.01 0.01 0.01 0.01 0.01 0.01 0.01 0.01 0.01 0.01 0.02 0.02 0.03 0.02 0.04 0.05 0.07 0.06 0.05 0.05 0.06 0.08 0.08 0.08
0.00 0.01 0.01 0.01 0.01 0.00 0.00 0.00 0.01 0.01 0.01 0.01 0.01 0.01 0.01 0.02 0.01 0.01 0.01 0.02 0.03 0.03 0.03 0.03 0.02 0.00 0.01 0.01 0.01 0.01 0.02 0.01 0.01 0.02 0.02 0.02 0.02 0.03 0.02 0.03 0.04 0.07 0.09 0.09 0.10 0.08 0.08 0.08 0.06
0.01 0.01 0.01 0.01 0.00 0.00 0.00 0.00 0.01 0.01 0.01 0.02 0.02 0.03 0.03 0.02 0.01 0.01 0.01 0.01 0.01 0.02 0.03 0.03 0.01 0.00 0.01 0.01 0.02 0.01 0.01 0.01 0.02 0.01 0.01 0.02 0.03 0.05 0.04 0.03 0.03 0.04 0.08 0.12 0.12 0.08 0.08 0.07 0.04
0.01 0.00 0.00 0.00 0.00 0.00 0.00 0.00 0.01 0.01 0.01 0.02 0.02 0.02 0.01 0.01 0.01 0.01 0.01 0.01 0.01 0.03 0.04 0.02 0.01 0.01 0.02 0.02 0.01 0.02 0.01 0.01 0.01 0.01 0.01 0.03 0.05 0.05 0.03 0.03 0.02 0.02 0.05 0.10 0.10 0.07 0.08 0.06 0.04
0.00 0.00 0.00 0.00 0.00 0.00 0.00 0.00 0.01 0.01 0.02 0.03 0.03 0.02 0.02 0.01 0.02 0.02 0.01 0.01 0.02 0.04 0.04 0.02 0.02 0.02 0.02 0.02 0.01 0.01 0.01 0.01 0.01 0.02 0.02 0.03 0.04 0.04 0.04 0.03 0.02 0.02 0.03 0.06 0.07 0.08 0.07 0.04 0.03
0.01 0.00 0.00 0.00 0.00 0.00 0.00 0.00 0.01 0.01 0.02 0.04 0.04 0.03 0.03 0.03 0.03 0.02 0.01 0.02 0.04 0.05 0.05 0.03 0.02 0.03 0.02 0.02 0.01 0.01 0.01 0.02 0.01 0.02 0.02 0.02 0.02 0.02 0.03 0.03 0.03 0.03 0.02 0.03 0.04 0.04 0.04 0.03 0.02
0.01 0.00 0.00 0.00 0.00 0.00 0.00 0.00 0.00 0.01 0.01 0.03 0.04 0.05 0.05 0.04 0.04 0.04 0.03 0.04 0.05 0.05 0.04 0.03 0.03 0.03 0.02 0.01 0.01 0.01 0.01 0.01 0.01 0.01 0.02 0.01 0.01 0.02 0.02 0.02 0.03 0.03 0.03 0.04 0.03 0.02 0.02 0.02 0.03
0.01 0.01 0.00 0.00 0.00 0.00 0.00 0.01 0.01 0.01 0.02 0.02 0.04 0.05 0.05 0.05 0.05 0.06 0.06 0.06 0.05 0.04 0.02 0.02 0.02 0.02 0.01 0.01 0.01 0.01 0.01 0.01 0.01 0.01 0.01 0.01 0.01 0.02 0.03 0.03 0.03 0.04 0.04 0.03 0.03 0.03 0.03 0.03 0.03
0.01 0.01 0.00 0.00 0.01 0.01 0.01 0.01 0.01 0.01 0.01 0.01 0.04 0.04 0.05 0.04 0.04 0.04 0.04 0.05 0.04 0.03 0.02 0.01 0.01 0.00 0.01 0.01 0.00 0.00 0.01 0.01 0.01 0.01 0.01 0.01 0.01 0.02 0.03 0.03 0.03 0.03 0.02 0.03 0.03 0.03 0.03 0.03 0.04
0.01 0.00 0.00 0.01 0.02 0.01 0.01 0.01 0.01 0.01 0.01 0.02 0.03 0.03 0.03 0.03 0.03 0.02 0.03 0.04 0.04 0.03 0.02 0.01 0.01 0.00 0.00 0.00 0.00 0.00 0.00 0.00 0.01 0.01 0.01 0.01 0.02 0.02 0.02 0.03 0.03 0.02 0.01 0.02 0.02 0.02 0.03 0.03 0.03
0.01 0.00 0.01 0.01 0.03 0.03 0.02 0.01 0.00 0.00 0.01 0.05 0.07 0.05 0.04 0.03 0.02 0.01 0.02 0.02 0.03 0.02 0.01 0.01 0.00 0.00 0.00 0.00 0.00 0.00 0.01 0.01 0.01 0.02 0.02 0.01 0.01 0.02 0.02 0.03 0.03 0.02 0.02 0.03 0.04 0.04 0.04 0.05 0.04
0.00 0.01 0.01 0.01 0.01 0.01 0.01 0.01 0.01 0.00 0.01 0.04 0.04 0.04 0.04 0.03 0.02 0.02 0.02 0.01 0.01 0.01 0.01 0.02 0.01 0.01 0.01 0.01 0.01 0.01 0.02 0.02 0.01 0.01 0.01 0.01 0.01 0.01 0.01 0.02 0.03 0.01 0.01 0.03 0.04 0.03 0.03 0.04 0.03
0.00 0.00 0.00 0.00 0.00 0.01 0.00 0.00 0.00 0.00 0.01 0.01 0.02 0.02 0.03 0.02 0.02 0.02 0.02 0.02 0.01 0.01 0.02 0.03 0.02 0.02 0.02 0.03 0.02 0.02 0.02 0.02 0.01 0.01 0.01 0.01 0.01 0.02 0.02 0.02 0.03 0.02 0.02 0.03 0.03 0.02 0.02 0.04 0.04
0.01 0.00 0.00 0.00 0.00 0.00 0.00 0.00 0.01 0.02 0.02 0.03 0.03 0.04 0.02 0.01 0.02 0.02 0.01 0.01 0.01 0.01 0.01 0.01 0.01 0.02 0.05 0.07 0.04 0.03 0.02 0.02 0.02 0.02 0.02 0.02 0.02 0.03 0.03 0.03 0.03 0.03 0.03 0.03 0.02 0.01 0.02 0.04 0.03
0.01 0.01 0.01 0.01 0.01 0.00 0.00 0.00 0.02 0.03 0.03 0.04 0.04 0.04 0.02 0.01 0.01 0.02 0.01 0.01 0.01 0.01 0.01 0.01 0.01 0.02 0.03 0.06 0.07 0.05 0.03 0.03 0.02 0.02 0.02 0.02 0.02 0.03 0.03 0.03 0.02 0.03 0.03 0.03 0.02 0.02 0.03 0.04 0.03
0.02 0.01 0.01 0.01 0.01 0.01 0.01 0.01 0.01 0.02 0.02 0.03 0.02 0.02 0.02 0.01 0.01 0.01 0.01 0.01 0.01 0.01 0.01 0.01 0.01 0.02 0.02 0.04 0.06 0.04 0.04 0.03 0.03 0.03 0.03 0.03 0.02 0.02 0.02 0.02 0.02 0.03 0.03 0.03 0.02 0.02 0.02 0.03 0.03
0.02 0.02 0.01 0.01 0.01 0.00 0.00 0.01 0.01 0.01 0.02 0.02 0.02 0.03 0.02 0.02 0.02 0.02 0.02 0.02 0.02 0.01 0.01 0.01 0.02 0.02 0.02 0.02 0.03 0.03 0.03 0.03 0.03 0.04 0.04 0.03 0.02 0.02 0.03 0.03 0.02 0.03 0.04 0.03 0.03 0.02 0.02 0.03 0.02
MSLP
1008.20 1008.99 1009.81 1010.50 1010.95 1011.08 1010.90 1010.47 1009.90 1009.35 1008.93 1008.74 1008.79 1009.05 1009.43 1009.81 1010.07 1010.13 1009.97 1009.63 1009.20 1008.76 1008.43 1008.28 1008.34 1008.59 1008.98 1009.45 1009.91 1010.34 1010.71 1011.04 1011.36 1011.72 1012.12 1012.59 1013.08 1013.57 1014.02 1014.38 1014.65 1014.82 1014.92 1014.99 1015.05 1015.12 1015.21 1015.29 1015.36
1008.49 1009.38 1010.23 1010.87 1011.20 1011.19 1010.85 1010.27 1009.60 1008.99 1008.56 1008.39 1008.49 1008.80 1009.23 1009.63 1009.90 1009.97 1009.82 1009.51 1009.11 1008.74 1008.49 1008.44 1008.59 1008.93 1009.39 1009.90 1010.40 1010.83 1011.20 1011.52 1011.83 1012.16 1012.55 1012.98 1013.43 1013.88 1014.29 1014.61 1014.84 1014.98 1015.07 1015.12 1015.18 1015.24 1015.32 1015.40 1015.45
1008.96 1009.90 1010.72 1011.27 1011.47 1011.30 1010.81 1010.13 1009.38 1008.75 1008.34 1008.21 1008.36 1008.72 1009.16 1009.58 1009.84 1009.90 1009.75 1009.45 1009.10 1008.79 1008.63 1008.66 1008.91 1009.32 1009.83 1010.37 1010.88 1011.31 1011.67 1011.97 1012.25 1012.55 1012.90 1013.29 1013.71 1014.12 1014.47 1014.76 1014.96 1015.08 1015.16 1015.22 1015.27 1015.34 1015.42 1015.49 1015.54
1009.55 1010.48 1011.22 1011.65 1011.71 1011.40 1010.79 1010.03 1009.27 1008.65 1008.29 1008.23 1008.44 1008.83 1009.29 1009.69 1009.93 1009.96 1009.81 1009.53 1009.21 1008.97 1008.88 1008.99 1009.30 1009.76 1010.30 1010.84 1011.34 1011.75 1012.08 1012.35 1012.60 1012.88 1013.19 1013.55 1013.93 1014.30 1014.62 1014.87 1015.05 1015.16 1015.24 1015.30 1015.36 1015.43 1015.51 1015.58 1015.62
1010.16 1011.03 1011.66 1011.94 1011.85 1011.43 1010.75 1009.97 1009.24 1008.70 1008.42 1008.44 1008.71 1009.13 1009.59 1009.96 1010.17 1010.18 1010.02 1009.75 1009.48 1009.29 1009.26 1009.43 1009.78 1010.26 1010.79 1011.31 1011.76 1012.13 1012.42 1012.66 1012.89 1013.14 1013.44 1013.78 1014.13 1014.47 1014.77 1015.00 1015.16 1015.26 1015.33 1015.38 1015.44 1015.51 1015.59 1015.64 1015.67
1010.68 1011.44 1011.92 1012.06 1011.85 1011.34 1010.65 1009.91 1009.27 1008.84 1008.68 1008.80 1009.13 1009.58 1010.03 1010.38 1010.55 1010.53 1010.36 1010.12 1009.88 1009.75 1009.78 1009.98 1010.34 1010.80 1011.29 1011.76 1012.15 1012.47 1012.71 1012.92 1013.13 1013.38 1013.68 1014.01 1014.36 1014.70 1014.98 1015.19 1015.33 1015.41 1015.45 1015.48 1015.52 1015.56 1015.61 1015.64 1015.64
1011.01 1011.63 1011.96 1011.96 1011.65 1011.12 1010.46 1009.82 1009.31 1009.03 1009.02 1009.24 1009.64 1010.10 1010.54 1010.85 1010.99 1010.95 1010.79 1010.57 1010.39 1010.31 1010.37 1010.59 1010.94 1011.36 1011.79 1012.19 1012.51 1012.76 1012.97 1013.16 1013.37 1013.63 1013.95 1014.30 1014.66 1014.99 1015.26 1015.44 1015.55 1015.59 1015.59 1015.58 1015.57 1015.56 1015.56 1015.55 1015.52
1011.11 1011.58 1011.76 1011.64 1011.28 1010.76 1010.19 1009.68 1009.34 1009.23 1009.36 1009.68 1010.13 1010.61 1011.02 1011.30 1011.42 1011.37 1011.23 1011.05 1010.92 1010.89 1010.99 1011.22 1011.55 1011.92 1012.28 1012.60 1012.85 1013.05 1013.23 1013.41 1013.64 1013.93 1014.28 1014.65 1015.02 1015.35 1015.59 1015.74 1015.80 1015.79 1015.73 1015.65 1015.57 1015.51 1015.45 1015.39 1015.32
1011.01 1011.32 1011.37 1011.18 1010.80 1010.33 1009.88 1009.53 1009.36 1009.41 1009.67 1010.07 1010.56 1011.03 1011.41 1011.66 1011.75 1011.72 1011.60 1011.48 1011.41 1011.44 1011.57 1011.81 1012.11 1012.43 1012.73 1012.98 1013.18 1013.34 1013.50 1013.70 1013.95 1014.27 1014.65 1015.05 1015.42 1015.74 1015.95 1016.06 1016.05 1015.97 1015.84 1015.68 1015.54 1015.40 1015.29 1015.18 1015.08
1010.77 1010.96 1010.90 1010.66 1010.30 1009.91 1009.59 1009.40 1009.39 1009.58 1009.93 1010.39 1010.88 1011.32 1011.67 1011.88 1011.96 1011.94 1011.86 1011.80 1011.80 1011.88 1012.06 1012.31 1012.60 1012.89 1013.14 1013.34 1013.50 1013.65 1013.80 1014.01 1014.30 1014.65 1015.04 1015.45 1015.82 1016.10 1016.27 1016.32 1016.25 1016.10 1015.90 1015.68 1015.47 1015.29 1015.14 1015.01 1014.90
1010.51 1010.59 1010.47 1010.22 1009.90 1009.60 1009.40 1009.35 1009.47 1009.76 1010.16 1010.63 1011.09 1011.48 1011.78 1011.95 1012.02 1012.01 1011.99 1011.99 1012.05 1012.19 1012.42 1012.69 1012.98 1013.25 1013.48 1013.66 1013.81 1013.95 1014.12 1014.35 1014.65 1015.01 1015.41 1015.80 1016.14 1016.38 1016.50 1016.49 1016.36 1016.15 1015.90 1015.65 1015.41 1015.22 1015.07 1014.95 1014.86
1010.33 1010.34 1010.19 1009.94 1009.68 1009.48 1009.39 1009.45 1009.65 1009.98 1010.39 1010.82 1011.22 1011.54 1011.77 1011.90 1011.95 1011.96 1011.98 1012.03 1012.16 1012.36 1012.62 1012.92 1013.22 1013.50 1013.73 1013.92 1014.08 1014.24 1014.42 1014.66 1014.96 1015.31 1015.69 1016.04 1016.33 1016.52 1016.58 1016.52 1016.35 1016.12 1015.85 1015.60 1015.38 1015.22 1015.11 1015.05 1015.01
1010.30 1010.28 1010.12 1009.91 1009.71 1009.59 1009.59 1009.71 1009.95 1010.28 1010.64 1011.00 1011.31 1011.54 1011.70 1011.78 1011.81 1011.83 1011.88 1011.97 1012.14 1012.38 1012.67 1013.00 1013.32 1013.62 1013.88 1014.10 1014.29 1014.48 1014.68 1014.92 1015.20 1015.52 1015.84 1016.14 1016.36 1016.49 1016.51 1016.42 1016.24 1016.01 1015.77 1015.56 1015.41 1015.32 1015.30 1015.32 1015.38
1010.44 1010.40 1010.26 1010.10 1009.97 1009.92 1009.98 1010.14 1010.37 1010.65 1010.93 1011.18 1011.39 1011.53 1011.61 1011.64 1011.66 1011.68 1011.74 1011.85 1012.04 1012.29 1012.60 1012.94 1013.29 1013.62 1013.92 1014.19 1014.42 1014.64 1014.86 1015.09 1015.34 1015.60 1015.85 1016.07 1016.23 1016.31 1016.29 1016.19 1016.04 1015.85 1015.68 1015.55 1015.49 1015.51 1015.60 1015.74 1015.90
1010.70 1010.66 1010.55 1010.45 1010.40 1010.42 1010.51 1010.67 1010.86 1011.06 1011.24 1011.38 1011.48 1011.53 1011.54 1011.54 1011.53 1011.55 1011.61 1011.73 1011.90 1012.15 1012.45 1012.79 1013.16 1013.52 1013.87 1014.19 1014.47 1014.72 1014.95 1015.17 1015.37 1015.56 1015.73 1015.87 1015.96 1016.00 1015.97 1015.89 1015.78 1015.67 1015.59 1015.56 1015.61 1015.75 1015.95 1016.21 1016.48
1010.97 1010.95 1010.90 1010.88 1010.90 1010.98 1011.10 1011.24 1011.38 1011.49 1011.55 1011.58 1011.58 1011.55 1011.51 1011.48 1011.47 1011.49 1011.54 1011.63 1011.79 1012.00 1012.27 1012.59 1012.96 1013.34 1013.73 1014.10 1014.44 1014.72 1014.96 1015.15 1015.30 1015.42 1015.51 1015.58 1015.61 1015.62 1015.60 1015.57 1015.53 1015.50 1015.52 1015.60 1015.75 1015.99 1016.29 1016.65 1017.03
1011.16 1011.17 1011.20 1011.27 1011.39 1011.54 1011.68 1011.80 1011.87 1011.87 1011.82 1011.74 1011.65 1011.56 1011.50 1011.47 1011.46 1011.49 1011.53 1011.60 1011.72 1011.88 1012.10 1012.38 1012.73 1013.13 1013.55 1013.97 1014.34 1014.66 1014.91 1015.07 1015.17 1015.22 1015.24 1015.24 1015.24 1015.24 1015.25 1015.27 1015.31 1015.37 1015.48 1015.65 1015.88 1016.19 1016.56 1016.98 1017.43
1011.18 1011.26 1011.40 1011.59 1011.82 1012.04 1012.21 1012.30 1012.29 1012.18 1012.02 1011.83 1011.66 1011.54 1011.47 1011.45 1011.48 1011.52 1011.58 1011.63 1011.70 1011.80 1011.97 1012.21 1012.53 1012.92 1013.36 1013.81 1014.22 1014.56 1014.81 1014.95 1015.01 1015.00 1014.95 1014.91 1014.88 1014.89 1014.94 1015.03 1015.15 1015.30 1015.48 1015.71 1015.98 1016.32 1016.72 1017.16 1017.64
1011.01 1011.19 1011.47 1011.82 1012.18 1012.48 1012.68 1012.73 1012.63 1012.40 1012.11 1011.81 1011.57 1011.42 1011.36 1011.38 1011.46 1011.55 1011.63 1011.69 1011.73 1011.79 1011.89 1012.07 1012.36 1012.74 1013.19 1013.65 1014.09 1014.44 1014.69 1014.82 1014.83 1014.78 1014.69 1014.62 1014.58 1014.61 1014.71 1014.86 1015.05 1015.27 1015.51 1015.77 1016.05 1016.38 1016.75 1017.18 1017.66
1010.68 1011.00 1011.47 1011.99 1012.50 1012.90 1013.11 1013.11 1012.90 1012.53 1012.09 1011.67 1011.35 1011.16 1011.12 1011.20 1011.35 1011.51 1011.65 1011.73 1011.76 1011.79 1011.85 1011.99 1012.24 1012.59 1013.03 1013.50 1013.95 1014.32 1014.56 1014.67 1014.66 1014.57 1014.46 1014.36 1014.33 1014.39 1014.53 1014.75 1015.01 1015.28 1015.55 1015.82 1016.08 1016.37 1016.69 1017.08 1017.53
1010.27 1010.79 1011.46 1012.19 1012.85 1013.33 1013.54 1013.46 1013.12 1012.58 1011.97 1011.40 1010.97 1010.74 1010.71 1010.85 1011.08 1011.34 1011.55 1011.69 1011.75 1011.78 1011.81 1011.92 1012.13 1012.46 1012.88 1013.35 1013.80 1014.17 1014.41 1014.51 1014.49 1014.38 1014.24 1014.14 1014.12 1014.20 1014.39 1014.66 1014.97 1015.29 1015.58 1015.84 1016.08 1016.31 1016.57 1016.90 1017.30
1009.89 1010.63 1011.54 1012.47 1013.28 1013.82 1014.01 1013.83 1013.31 1012.57 1011.75 1011.00 1010.45 1010.15 1010.11 1010.30 1010.62 1010.98 1011.29 1011.51 1011.63 1011.68 1011.72 1011.81 1012.00 1012.30 1012.71 1013.17 1013.61 1013.98 1014.22 1014.32 1014.28 1014.16 1014.02 1013.91 1013.90 1014.01 1014.23 1014.54 1014.90 1015.25 1015.56 1015.82 1016.03 1016.21 1016.42 1016.68 1017.03
1009.64 1010.61 1011.74 1012.86 1013.79 1014.37 1014.51 1014.19 1013.48 1012.50 1011.45 1010.50 1009.79 1009.40 1009.34 1009.56 1009.96 1010.42 1010.85 1011.16 1011.36 1011.47 1011.53 1011.62 1011.79 1012.08 1012.47 1012.91 1013.35 1013.72 1013.97 1014.06 1014.03 1013.91 1013.76 1013.66 1013.66 1013.78 1014.03 1014.38 1014.77 1015.15 1015.48 1015.74 1015.94 1016.09 1016.25 1016.46 1016.77
1009.54 1010.73 1012.07 1013.34 1014.35 1014.93 1014.99 1014.51 1013.59 1012.37 1011.09 1009.92 1009.05 1008.55 1008.45 1008.68 1009.14 1009.69 1010.22 1010.64 1010.93 1011.09 1011.19 1011.30 1011.47 1011.75 1012.12 1012.56 1012.99 1013.36 1013.62 1013.73 1013.70 1013.59 1013.46 1013.37 1013.37 1013.51 1013.78 1014.14 1014.56 1014.97 1015.33 1015.60 1015.80 1015.95 1016.08 1016.26 1016.53
1009.60 1010.96 1012.45 1013.82 1014.87 1015.41 1015.36 1014.72 1013.60 1012.16 1010.65 1009.30 1008.27 1007.66 1007.50 1007.73 1008.23 1008.85 1009.46 1009.97 1010.34 1010.57 1010.71 1010.84 1011.02 1011.28 1011.65 1012.07 1012.51 1012.89 1013.16 1013.30 1013.30 1013.22 1013.11 1013.04 1013.06 1013.21 1013.48 1013.86 1014.30 1014.73 1015.11 1015.41 1015.63 1015.78 1015.92 1016.08 1016.31
1009.74 1011.22 1012.78 1014.18 1015.22 1015.70 1015.53 1014.75 1013.46 1011.85 1010.17 1008.67 1007.51 1006.82 1006.60 1006.81 1007.32 1007.98 1008.65 1009.22 1009.65 1009.92 1010.10 1010.25 1010.43 1010.69 1011.05 1011.47 1011.91 1012.30 1012.61 1012.78 1012.84 1012.80 1012.73 1012.69 1012.74 1012.90 1013.19 1013.58 1014.03 1014.48 1014.88 1015.21 1015.45 1015.62 1015.76 1015.91 1016.13
1009.88 1011.39 1012.95 1014.32 1015.29 1015.69 1015.43 1014.54 1013.14 1011.43 1009.67 1008.08 1006.86 1006.11 1005.85 1006.03 1006.53 1007.19 1007.87 1008.47 1008.92 1009.22 1009.42 1009.57 1009.75 1010.00 1010.35 1010.76 1011.21 1011.63 1011.97 1012.20 1012.32 1012.35 1012.34 1012.36 1012.44 1012.63 1012.94 1013.34 1013.79 1014.26 1014.68 1015.02 1015.29 1015.48 1015.63 1015.78 1015.98
1009.95 1011.40 1012.88 1014.16 1015.03 1015.33 1015.00 1014.06 1012.65 1010.93 1009.18 1007.60 1006.38 1005.62 1005.34 1005.49 1005.95 1006.58 1007.24 1007.81 1008.25 1008.55 1008.73 1008.88 1009.04 1009.28 1009.60 1010.01 1010.46 1010.90 1011.28 1011.57 1011.77 1011.88 1011.96 1012.05 1012.19 1012.43 1012.76 1013.18 1013.65 1014.12 1014.55 1014.91 1015.20 1015.40 1015.56 1015.71 1015.88
1009.89 1011.22 1012.55 1013.68 1014.42 1014.64 1014.28 1013.36 1012.01 1010.40 1008.76 1007.29 1006.15 1005.43 1005.16 1005.28 1005.69 1006.25 1006.84 1007.35 1007.73 1007.99 1008.14 1008.25 1008.38 1008.58 1008.88 1009.26 1009.70 1010.15 1010.57 1010.92 1011.19 1011.40 1011.58 1011.76 1011.98 1012.28 1012.66 1013.11 1013.60 1014.08 1014.53 1014.90 1015.20 1015.41 1015.57 1015.71 1015.86
1009.72 1010.86 1011.99 1012.94 1013.55 1013.70 1013.35 1012.53 1011.33 1009.91 1008.48 1007.19 1006.19 1005.56 1005.32 1005.42 1005.76 1006.23 1006.71 1007.13 1007.42 1007.60 1007.69 1007.75 1007.83 1007.99 1008.24 1008.58 1008.99 1009.44 1009.87 1010.26 1010.60 1010.90 1011.17 1011.46 1011.78 1012.16 1012.61 1013.11 1013.63 1014.14 1014.60 1014.98 1015.29 1015.51 1015.67 1015.79 1015.93
Thickness
5813 5811 5807 5796 5778 5762 5758 5771 5781 5781 5783 5792 5794 5790 5782 5776 5771 5768 5791 5800 5800 5799 5799 5798 5797 5796 5795 5794 5793 5792 5792 5791 5791 5791 5790 5789 5788 5788 5786 5785 5784 5783 5782 5781 5779 5778 5777 5775 5773
5814 5811 5802 5788 5766 5749 5758 5776 5780 5785 5791 5798 5796 5791 5784 5782 5788 5789 5794 5799 5800 5799 5798 5798 5797 5795 5794 5793 5792 5792 5791 5790 5790 5789 5789 5788 5787 5786 5785 5784 5783 5782 5781 5780 5779 5777 5775 5774 5772
5815 5811 5793 5779 5764 5755 5763 5781 5784 5793 5800 5799 5792 5791 5787 5784 5791 5792 5797 5800 5799 5797 5797 5797 5797 5796 5795 5793 5791 5791 5790 5789 5788 5788 5787 5786 5786 5785 5784 5783 5781 5780 5779 5778 5777 5775 5774 5772 5771
5813 5801 5790 5774 5766 5774 5780 5787 5792 5793 5797 5799 5792 5784 5789 5797 5797 5798 5801 5800 5797 5796 5796 5797 5797 5797 5797 5794 5791 5791 5789 5788 5787 5786 5785 5785 5784 5783 5782 5781 5780 5779 5778 5777 5776 5774 5773 5771 5770
5811 5794 5777 5766 5772 5784 5793 5798 5798 5793 5791 5794 5791 5781 5783 5797 5803 5802 5800 5798 5796 5795 5796 5796 5797 5797 5796 5794 5791 5790 5788 5787 5786 5785 5784 5783 5783 5782 5781 5780 5779 5778 5776 5776 5775 5773 5772 5770 5769
5800 5789 5767 5760 5773 5788 5796 5801 5799 5793 5792 5794 5790 5782 5783 5797 5799 5799 5799 5797 5796 5795 5795 5795 5795 5795 5794 5792 5790 5789 5787 5786 5785 5783 5783 5782 5781 5781 5780 5779 5778 5777 5775 5774 5773 5772 5771 5769 5768
5795 5781 5770 5771 5774 5783 5796 5804 5798 5793 5791 5794 5796 5782 5784 5794 5799 5800 5799 5797 5796 5795 5794 5793 5792 5792 5791 5790 5789 5788 5786 5785 5784 5782 5782 5781 5780 5779 5779 5778 5777 5775 5774 5774 5773 5772 5770 5769 5768
5804 5785 5775 5774 5776 5784 5801 5805 5804 5799 5795 5806 5803 5785 5783 5795 5801 5800 5797 5796 5794 5793 5792 5792 5791 5791 5790 5789 5788 5786 5785 5784 5782 5781 5780 5779 5778 5778 5778 5777 5776 5775 5774 5773 5772 5771 5770 5768 5767
5809 5781 5770 5780 5784 5791 5805 5802 5805 5810 5804 5804 5805 5801 5801 5804 5801 5796 5793 5791 5791 5791 5791 5791 5790 5790 5789 5788 5786 5785 5784 5782 5781 5780 5779 5778 5777 5777 5777 5777 5776 5775 5774 5773 5772 5771 5769 5767 5766
5800 5778 5785 5801 5804 5803 5806 5804 5804 5802 5796 5796 5800 5804 5806 5803 5798 5793 5790 5788 5788 5788 5790 5790 5790 5789 5788 5787 5785 5784 5783 5781 5780 5778 5777 5776 5775 5775 5775 5775 5775 5774 5773 5772 5771 5770 5768 5766 5765
5803 5793 5804 5812 5815 5813 5808 5807 5809 5799 5791 5797 5798 5800 5802 5800 5796 5794 5792 5791 5790 5791 5790 5790 5789 5789 5787 5786 5784 5783 5781 5780 5778 5777 5776 5775 5774 5773 5773 5772 5772 5772 5771 5770 5769 5768 5767 5765 5764
5806 5810 5815 5817 5821 5816 5812 5810 5806 5804 5805 5813 5812 5809 5804 5800 5797 5796 5794 5793 5793 5791 5791 5791 5790 5788 5787 5786 5784 5782 5781 5779 5777 5776 5775 5774 5773 5772 5771 5770 5770 5770 5769 5768 5767 5766 5765 5764 5763
5809 5813 5821 5823 5822 5819 5817 5811 5808 5808 5816 5818 5815 5810 5805 5803 5801 5800 5800 5797 5795 5792 5792 5791 5791 5789 5788 5786 5784 5782 5781 5779 5777 5776 5774 5773 5772 5770 5770 5769 5769 5768 5768 5767 5765 5764 5764 5763 5762
5817 5817 5818 5821 5821 5821 5814 5812 5809 5809 5816 5815 5811 5808 5807 5806 5804 5801 5799 5797 5795 5794 5793 5793 5791 5790 5789 5787 5784 5782 5781 5779 5777 5776 5774 5773 5772 5770 5769 5768 5767 5767 5766 5765 5764 5763 5762 5761 5761
5822 5811 5812 5817 5819 5819 5815 5802 5806 5814 5816 5811 5809 5808 5808 5807 5806 5804 5803 5800 5798 5797 5796 5794 5793 5792 5790 5788 5785 5783 5781 5780 5777 5775 5774 5773 5771 5770 5768 5767 5766 5766 5765 5764 5763 5762 5761 5760 5760
5813 5800 5791 5810 5818 5819 5807 5789 5810 5817 5814 5808 5809 5808 5807 5807 5807 5807 5806 5804 5802 5799 5797 5795 5796 5793 5790 5788 5786 5784 5781 5779 5777 5776 5774 5773 5771 5770 5768 5767 5765 5765 5764 5763 5762 5760 5759 5758 5757
5792 5781 5784 5800 5816 5814 5805 5795 5812 5818 5814 5808 5809 5809 5808 5807 5807 5808 5808 5806 5804 5801 5799 5796 5795 5793 5791 5788 5786 5783 5781 5779 5777 5776 5774 5773 5771 5770 5768 5766 5765 5764 5763 5761 5761 5759 5757 5755 5755
5779 5782 5786 5792 5809 5809 5801 5801 5812 5817 5814 5810 5809 5809 5808 5807 5808 5811 5810 5809 5806 5803 5800 5797 5794 5792 5790 5787 5784 5782 5780 5778 5777 5775 5774 5773 5771 5770 5768 5766 5765 5763 5761 5759 5758 5756 5755 5754 5753
5795 5789 5787 5797 5813 5805 5800 5802 5809 5814 5812 5810 5808 5807 5807 5808 5811 5812 5811 5809 5806 5802 5800 5797 5793 5791 5789 5785 5782 5779 5777 5776 5775 5775 5774 5772 5771 5769 5767 5765 5764 5762 5760 5758 5757 5755 5753 5751 5751
5796 5788 5789 5799 5812 5807 5798 5801 5811 5814 5813 5813 5811 5810 5809 5808 5808 5809 5808 5807 5805 5802 5799 5797 5794 5792 5790 5787 5784 5781 5778 5776 5775 5774 5773 5772 5770 5769 5767 5765 5763 5761 5759 5757 5755 5753 5751 5749 5749
5794 5790 5792 5793 5801 5804 5798 5794 5803 5812 5815 5816 5816 5815 5813 5811 5808 5807 5806 5805 5804 5802 5800 5798 5794 5792 5790 5788 5784 5780 5777 5774 5772 5771 5770 5770 5769 5768 5766 5765 5763 5761 5759 5756 5754 5753 5750 5746 5747
5787 5805 5803 5797 5784 5775 5788 5766 5792 5802 5805 5809 5812 5813 5813 5813 5812 5809 5806 5804 5804 5804 5802 5799 5795 5792 5790 5788 5784 5779 5774 5770 5770 5769 5769 5769 5768 5767 5765 5763 5762 5760 5758 5756 5754 5753 5750 5747 5744
5801 5811 5803 5794 5782 5772 5778 5768 5780 5797 5796 5805 5811 5815 5816 5816 5814 5811 5809 5807 5806 5804 5802 5799 5795 5792 5790 5787 5784 5780 5776 5773 5771 5769 5767 5766 5766 5765 5763 5762 5760 5758 5756 5754 5752 5751 5749 5747 5744
5810 5800 5789 5777 5768 5755 5770 5765 5770 5786 5799 5808 5813 5817 5818 5818 5816 5813 5811 5808 5805 5804 5801 5798 5794 5791 5789 5786 5783 5779 5775 5772 5769 5766 5764 5763 5763 5762 5761 5760 5758 5756 5754 5752 5751 5749 5747 5744 5742
5800 5776 5752 5749 5740 5746 5768 5765 5774 5803 5813 5816 5816 5818 5820 5820 5816 5812 5809 5806 5803 5802 5800 5797 5793 5790 5788 5785 5782 5779 5775 5772 5769 5766 5764 5762 5760 5759 5758 5758 5756 5754 5752 5751 5749 5746 5744 5742 5740
5789 5778 5750 5738 5734 5745 5761 5760 5786 5812 5818 5822 5822 5822 5820 5818 5815 5812 5810 5807 5805 5802 5799 5796 5792 5789 5786 5784 5781 5778 5775 5772 5769 5767 5764 5761 5759 5758 5757 5755 5753 5751 5749 5748 5746 5743 5741 5739 5737
5782 5773 5776 5752 5745 5741 5749 5767 5791 5812 5813 5816 5817 5817 5815 5815 5814 5811 5809 5807 5804 5801 5799 5796 5791 5787 5785 5782 5779 5777 5774 5771 5768 5766 5763 5760 5758 5757 5754 5752 5750 5748 5746 5744 5742 5740 5737 5735 5733
5793 5777 5758 5746 5733 5731 5747 5758 5770 5793 5801 5807 5809 5810 5811 5812 5811 5809 5807 5805 5803 5800 5797 5794 5790 5785 5782 5780 5777 5775 5772 5769 5767 5763 5761 5758 5756 5754 5751 5748 5746 5744 5742 5740 5738 5736 5733 5731 5729
5777 5770 5756 5743 5743 5731 5730 5752 5793 5796 5801 5802 5805 5808 5808 5809 5808 5806 5804 5802 5800 5796 5793 5790 5787 5783 5780 5777 5774 5772 5769 5766 5764 5760 5757 5755 5753 5751 5748 5745 5742 5740 5738 5736 5733 5731 5729 5726 5724
5784 5773 5758 5748 5740 5734 5731 5753 5801 5801 5803 5803 5803 5805 5806 5805 5805 5803 5801 5797 5794 5791 5789 5786 5783 5780 5777 5775 5771 5769 5766 5762 5759 5756 5753 5751 5749 5747 5744 5741 5738 5736 5734 5731 5729 5726 5724 5721 5719